User: anonymous   Login
Location: Unspecified
(0.0000°N, 0.0000°E)
Time: 10:49:29
(UTC+00:00)
Language:

OBJECT X - Orbit

View from above orbital plane
View from above orbital plane
View from above satellite
View from above satellite

Ground track
Ground track

The orbit data is extracted from the following two-line orbital elements,

1 43897U 18111X   19112.19796281  .00000665  00000-0  30465-4 0  9999
2 43897  97.2938  18.9233 0022465 195.3756 164.6801 15.23694945 17688
Epoch (UTC): 22 April 2019 04:45:03
Eccentricity: 0.0022465
inclination: 97.2938°
perigee height: 479 km
apogee height: 510 km
right ascension of ascending node: 18.9233°
argument of perigee: 195.3756°
revolutions per day: 15.23694945
mean anomaly at epoch: 164.6801°
orbit number at epoch: 1768

The dashed part of the orbit path shows where the satellite is in the earth's shadow,  

DLR